Location: Newark
(49.2191°N, 12.6671°E)
Time: 01:35:58
(UTC+00:00)

Altair - Visible Passes

Search period start: 23 January 2020 00:00
Search period end: 02 February 2020 00:00
Orbit: 1502 x 1682 km, 47.2° (Epoch: 22 January)

Date Brightness Start Highest point End Pass type
(mag) Time Alt. Az. Time Alt. Az. Time Alt. Az.
24 Jan 10.0 06:15:35 10° S 06:22:38 22° SE 06:29:46 10° E visible
25 Jan 10.0 05:50:59 10° S 05:57:37 20° SE 06:04:18 10° E visible
26 Jan 10.0 05:26:28 10° SSE 05:32:36 18° SE 05:38:47 10° E visible
27 Jan 10.0 05:02:02 10° SSE 05:07:35 17° SE 05:13:11 10° E visible
28 Jan 10.0 04:37:44 10° SSE 04:42:35 15° ESE 04:47:29 10° E visible
29 Jan 10.0 04:13:38 10° SSE 04:17:36 13° ESE 04:21:36 10° E visible
29 Jan 9.0 06:11:06 10° SSW 06:20:11 42° SE 06:29:26 10° ENE visible
30 Jan 10.0 03:49:54 10° SE 03:52:37 11° ESE 03:55:21 10° ESE visible
30 Jan 9.0 05:46:10 10° SSW 05:55:05 39° SE 06:04:11 10° ENE visible
31 Jan 9.0 05:21:16 10° SSW 05:30:00 37° SE 05:38:55 10° ENE visible
01 Feb 9.1 04:56:23 10° SSW 05:04:55 34° SE 05:13:38 10° ENE visible
